This is the latest recevied weather packets stored in our database for station/object K5BOU. If no packets are shown the sender has not sent any weather packets the latest 10 day(s).
| Time | Temp. | Humidity | Pressure | Rain* | Wind** | Luminosity | Snow |
|---|---|---|---|---|---|---|---|
| 1777997441 | 26.11° C | 93% | 1007.4 hPa | 0 mm | - | 150 W/m² | - |
| 1777997139 | 25.56° C | 93% | 1007.4 hPa | 0 mm | - | 246 W/m² | - |
| 1777996836 | 25.56° C | 94% | 1007.2 hPa | 0 mm | - | 189 W/m² | - |
| 1777996532 | 25.56° C | 94% | 1007.5 hPa | 0 mm | - | 186 W/m² | - |
| 1777996229 | 25.56° C | 94% | 1007.3 hPa | 0 mm | - | 215 W/m² | - |
| 1777995925 | 25° C | 95% | 1007.3 hPa | 0 mm | - | 228 W/m² | - |
| 1777995621 | 25° C | 95% | 1007.2 hPa | 0 mm | - | 118 W/m² | - |
| 1777995319 | 25° C | 95% | 1007.3 hPa | 0 mm | - | 105 W/m² | - |
| 1777995015 | 25.56° C | 95% | 1007.1 hPa | 0 mm | - | 89 W/m² | - |
| 1777994712 | 25° C | 95% | 1007.2 hPa | 0 mm | - | 187 W/m² | - |
| 1777994408 | 25° C | 95% | 1007.1 hPa | 0 mm | - | 231 W/m² | - |
| 1777994103 | 25° C | 95% | 1007.2 hPa | 0 mm | - | 160 W/m² | - |
| 1777993801 | 25° C | 96% | 1007.3 hPa | 0 mm | - | 163 W/m² | - |
| 1777993497 | 25° C | 96% | 1007 hPa | 0 mm | - | 176 W/m² | - |
| 1777993197 | 25° C | 96% | 1007.1 hPa | 0 mm | - | 150 W/m² | - |
| 1777992895 | 24.44° C | 97% | 1006.9 hPa | 0 mm | - | 121 W/m² | - |
| 1777992593 | 24.44° C | 97% | 1007.1 hPa | 0 mm | - | 94 W/m² | - |
| 1777992291 | 24.44° C | 97% | 1007.2 hPa | 0 mm | - | 125 W/m² | - |
| 1777991988 | 24.44° C | 97% | 1007.1 hPa | 0 mm | - | 109 W/m² | - |
| 1777991685 | 24.44° C | 98% | 1007.1 hPa | 0 mm | - | 92 W/m² | - |
| 1777991382 | 24.44° C | 98% | 1006.9 hPa | 0 mm | - | 124 W/m² | - |
| 1777991079 | 24.44° C | 98% | 1006.8 hPa | 0 mm | - | 129 W/m² | - |
| 1777990777 | 23.89° C | 99% | 1007.1 hPa | 0 mm | - | 147 W/m² | - |
| 1777990474 | 23.89° C | 99% | 1006.9 hPa | 0 mm | - | 121 W/m² | - |
| 1777989867 | 23.89° C | 99% | 1006.9 hPa | 0 mm | - | 94 W/m² | - |
* Rain latest hour (hover to see other rain measurements)
** Current wind speed in m/s (hover to see current wind gust speed)